| time (UTC) | temp F | wind direction | speed MPH | gust MPH | rain 1hr in | rain 24hr in | rain mn in | humidity % | barometer mb |
| 20260506201055 | 86 | 182 | 5.0 | 14.0 | 0.00 | 0.00 | 0.00 | 79 | 1007.8 |
| 20260506200557 | 86 | 161 | 7.0 | 14.0 | 0.00 | 0.00 | 0.00 | 78 | 1007.9 |
| 20260506200107 | 86 | 167 | 5.0 | 13.0 | 0.00 | 0.00 | 0.00 | 80 | 1007.9 |
| 20260506195556 | 86 | 149 | 7.0 | 14.0 | 0.00 | 0.00 | 0.00 | 79 | 1008.1 |
| 20260506195057 | 87 | 204 | 8.0 | 16.0 | 0.00 | 0.00 | 0.00 | 79 | 1008.1 |
| 20260506194608 | 86 | 149 | 9.0 | 16.0 | 0.00 | 0.00 | 0.00 | 78 | 1008.3 |
| 20260506194054 | 86 | 158 | 7.0 | 14.0 | 0.00 | 0.00 | 0.00 | 80 | 1008.4 |
| 20260506193558 | 86 | 196 | 6.0 | 14.0 | 0.00 | 0.00 | 0.00 | 81 | 1008.5 |
| 20260506193102 | 85 | 161 | 6.0 | 15.0 | 0.00 | 0.00 | 0.00 | 80 | 1008.6 |
| 20260506192555 | 85 | 171 | 8.0 | 15.0 | 0.00 | 0.00 | 0.00 | 80 | 1008.7 |
| 20260506192055 | 86 | 145 | 5.0 | 12.0 | 0.00 | 0.00 | 0.00 | 80 | 1008.7 |
| 20260506191609 | 85 | 189 | 6.0 | 13.0 | 0.00 | 0.00 | 0.00 | 81 | 1008.9 |
| 20260506191055 | 84 | 0 | 5.0 | 13.0 | 0.00 | 0.00 | 0.00 | 83 | 1008.9 |
| 20260506190555 | 84 | 125 | 7.0 | 13.0 | 0.00 | 0.00 | 0.00 | 83 | 1009.0 |
| 20260506190055 | 84 | 144 | 7.0 | 13.0 | 0.00 | 0.00 | 0.00 | 82 | 1008.9 |
| 20260506185555 | 84 | 167 | 6.0 | 14.0 | 0.00 | 0.00 | 0.00 | 84 | 1009.0 |
| 20260506185055 | 83 | 125 | 6.0 | 14.0 | 0.00 | 0.00 | 0.00 | 86 | 1009.0 |
| 20260506184555 | 83 | 144 | 7.0 | 13.0 | 0.00 | 0.00 | 0.00 | 84 | 1009.1 |
| 20260506184056 | 83 | 144 | 7.0 | 13.0 | 0.00 | 0.00 | 0.00 | 84 | 1009.1 |
| 20260506183555 | 83 | 116 | 7.0 | 13.0 | 0.00 | 0.00 | 0.00 | 83 | 1009.1 |
| 20260506183104 | 83 | 138 | 8.0 | 13.0 | 0.00 | 0.00 | 0.00 | 82 | 1009.2 |
| 20260506182554 | 83 | 140 | 8.0 | 13.0 | 0.00 | 0.00 | 0.00 | 85 | 1009.2 |
| 20260506182054 | 82 | 153 | 6.0 | 12.0 | 0.00 | 0.00 | 0.00 | 85 | 1009.2 |
| 20260506181601 | 82 | 163 | 7.0 | 12.0 | 0.00 | 0.00 | 0.00 | 85 | 1009.3 |
| 20260506181055 | 82 | 186 | 4.0 | 8.0 | 0.00 | 0.00 | 0.00 | 85 | 1009.4 |
| 20260506180556 | 82 | 152 | 2.0 | 8.0 | 0.00 | 0.00 | 0.00 | 86 | 1009.5 |
| 20260506180115 | 81 | 146 | 3.0 | 10.0 | 0.00 | 0.00 | 0.00 | 85 | 1009.5 |
| 20260506175558 | 81 | 169 | 3.0 | 10.0 | 0.00 | 0.00 | 0.00 | 86 | 1009.6 |
| 20260506175058 | 81 | 157 | 4.0 | 11.0 | 0.00 | 0.00 | 0.00 | 87 | 1009.6 |
| 20260506174556 | 81 | 145 | 4.0 | 14.0 | 0.00 | 0.00 | 0.00 | 86 | 1009.6 |
| 20260506174055 | 81 | 127 | 6.0 | 14.0 | 0.00 | 0.00 | 0.00 | 86 | 1009.6 |
| 20260506173555 | 81 | 150 | 5.0 | 13.0 | 0.00 | 0.00 | 0.00 | 87 | 1009.6 |
| 20260506173129 | 81 | 144 | 7.0 | 13.0 | 0.00 | 0.00 | 0.00 | 88 | 1009.6 |
| 20260506172556 | 80 | 176 | 3.0 | 11.0 | 0.00 | 0.00 | 0.00 | 89 | 1009.6 |
| 20260506172055 | 80 | 119 | 6.0 | 12.0 | 0.00 | 0.00 | 0.00 | 89 | 1009.7 |
| 20260506171554 | 80 | 150 | 5.0 | 12.0 | 0.00 | 0.00 | 0.00 | 89 | 1009.7 |
| 20260506171055 | 80 | 160 | 6.0 | 14.0 | 0.00 | 0.00 | 0.00 | 88 | 1009.7 |
| 20260506170555 | 80 | 112 | 6.0 | 14.0 | 0.00 | 0.00 | 0.00 | 88 | 1009.7 |
| 20260506170059 | 80 | 144 | 5.0 | 13.0 | 0.00 | 0.00 | 0.00 | 88 | 1009.7 |
| 20260506165555 | 80 | 157 | 3.0 | 13.0 | 0.00 | 0.00 | 0.00 | 88 | 1009.7 |
| 20260506165055 | 80 | 141 | 5.0 | 9.0 | 0.00 | 0.00 | 0.00 | 88 | 1009.7 |
| 20260506164556 | 80 | 128 | 3.0 | 8.0 | 0.00 | 0.00 | 0.00 | 88 | 1009.6 |
| 20260506164054 | 80 | 127 | 3.0 | 10.0 | 0.00 | 0.00 | 0.00 | 89 | 1009.6 |
| 20260506163554 | 80 | 117 | 4.0 | 10.0 | 0.00 | 0.00 | 0.00 | 89 | 1009.5 |
| 20260506163104 | 80 | 132 | 4.0 | 10.0 | 0.00 | 0.00 | 0.00 | 89 | 1009.5 |
| 20260506162558 | 80 | 144 | 5.0 | 9.0 | 0.00 | 0.00 | 0.00 | 89 | 1009.5 |
| 20260506162054 | 80 | 133 | 4.0 | 10.0 | 0.00 | 0.00 | 0.00 | 89 | 1009.4 |
| 20260506161557 | 80 | 109 | 5.0 | 10.0 | 0.00 | 0.00 | 0.00 | 89 | 1009.4 |
| 20260506161055 | 80 | 102 | 3.0 | 9.0 | 0.00 | 0.00 | 0.00 | 90 | 1009.3 |
| 20260506160557 | 79 | 111 | 4.0 | 9.0 | 0.00 | 0.00 | 0.00 | 90 | 1009.3 |
| 20260506160057 | 79 | 117 | 4.0 | 9.0 | 0.00 | 0.00 | 0.00 | 90 | 1009.2 |
| 20260506155555 | 79 | 116 | 3.0 | 9.0 | 0.00 | 0.00 | 0.00 | 91 | 1009.1 |
| 20260506155055 | 79 | 144 | 6.0 | 11.0 | 0.00 | 0.00 | 0.00 | 90 | 1008.9 |
| 20260506154600 | 79 | 126 | 5.0 | 11.0 | 0.00 | 0.00 | 0.00 | 90 | 1008.8 |
| 20260506154055 | 79 | 103 | 4.0 | 8.0 | 0.00 | 0.00 | 0.00 | 90 | 1008.9 |
| 20260506153559 | 79 | 79 | 3.0 | 11.0 | 0.00 | 0.00 | 0.00 | 91 | 1008.8 |
| 20260506153100 | 79 | 134 | 6.0 | 11.0 | 0.00 | 0.00 | 0.00 | 91 | 1008.7 |
| 20260506152555 | 79 | 84 | 6.0 | 11.0 | 0.00 | 0.00 | 0.00 | 91 | 1008.7 |
| 20260506152055 | 79 | 103 | 6.0 | 10.0 | 0.00 | 0.00 | 0.00 | 91 | 1008.7 |
| 20260506151600 | 79 | 129 | 6.0 | 9.0 | 0.00 | 0.00 | 0.00 | 92 | 1008.5 |
| 20260506151054 | 78 | 105 | 3.0 | 9.0 | 0.00 | 0.00 | 0.00 | 93 | 1008.5 |
| 20260506150559 | 78 | 103 | 5.0 | 9.0 | 0.00 | 0.00 | 0.00 | 92 | 1008.4 |
| 20260506150103 | 78 | 117 | 4.0 | 9.0 | 0.00 | 0.00 | 0.00 | 93 | 1008.5 |
| 20260506145555 | 77 | 102 | 4.0 | 9.0 | 0.00 | 0.00 | 0.00 | 94 | 1008.4 |
| 20260506145055 | 77 | 121 | 4.0 | 10.0 | 0.00 | 0.00 | 0.00 | 94 | 1008.4 |
| 20260506144607 | 77 | 97 | 5.0 | 10.0 | 0.00 | 0.00 | 0.00 | 94 | 1008.3 |
| 20260506144055 | 77 | 113 | 3.0 | 10.0 | 0.00 | 0.00 | 0.00 | 95 | 1008.3 |
| 20260506143555 | 77 | 99 | 4.0 | 7.0 | 0.00 | 0.00 | 0.00 | 95 | 1008.2 |
| 20260506143110 | 76 | 109 | 3.0 | 7.0 | 0.00 | 0.00 | 0.00 | 95 | 1008.2 |
| 20260506142556 | 76 | 107 | 3.0 | 7.0 | 0.00 | 0.00 | 0.00 | 95 | 1008.2 |
| 20260506142055 | 76 | 103 | 4.0 | 7.0 | 0.00 | 0.00 | 0.00 | 95 | 1008.2 |
| 20260506141553 | 76 | 107 | 3.0 | 7.0 | 0.00 | 0.00 | 0.00 | 95 | 1008.3 |
| 20260506141052 | 76 | 113 | 3.0 | 8.0 | 0.00 | 0.00 | 0.00 | 95 | 1008.3 |
| 20260506140555 | 76 | 113 | 3.0 | 8.0 | 0.00 | 0.00 | 0.00 | 96 | 1008.1 |
| 20260506140058 | 76 | 109 | 4.0 | 8.0 | 0.00 | 0.00 | 0.00 | 96 | 1008.1 |
| 20260506135554 | 76 | 105 | 4.0 | 9.0 | 0.00 | 0.00 | 0.00 | 96 | 1008.1 |
| 20260506135057 | 75 | 106 | 4.0 | 9.0 | 0.00 | 0.00 | 0.00 | 95 | 1008.1 |
| 20260506134600 | 75 | 94 | 4.0 | 8.0 | 0.00 | 0.00 | 0.00 | 95 | 1008.1 |
| 20260506134055 | 75 | 88 | 4.0 | 8.0 | 0.00 | 0.00 | 0.00 | 95 | 1008.2 |
| 20260506133555 | 75 | 90 | 2.0 | 7.0 | 0.00 | 0.00 | 0.00 | 95 | 1008.4 |
| 20260506133100 | 75 | 89 | 4.0 | 7.0 | 0.00 | 0.00 | 0.00 | 95 | 1008.4 |
| 20260506132557 | 75 | 89 | 2.0 | 6.0 | 0.00 | 0.00 | 0.00 | 95 | 1008.3 |
| 20260506132058 | 75 | 89 | 3.0 | 6.0 | 0.00 | 0.00 | 0.00 | 95 | 1008.2 |
| 20260506131557 | 75 | 89 | 3.0 | 6.0 | 0.00 | 0.00 | 0.00 | 96 | 1008.4 |
| 20260506131055 | 75 | 89 | 2.0 | 6.0 | 0.00 | 0.00 | 0.00 | 96 | 1008.3 |
| 20260506130555 | 75 | 109 | 2.0 | 7.0 | 0.00 | 0.00 | 0.00 | 96 | 1008.3 |
| 20260506130104 | 75 | 109 | 3.0 | 7.0 | 0.00 | 0.00 | 0.00 | 96 | 1008.1 |
| 20260506125555 | 75 | 96 | 3.0 | 7.0 | 0.00 | 0.00 | 0.00 | 96 | 1008.1 |
| 20260506125056 | 75 | 99 | 3.0 | 7.0 | 0.00 | 0.00 | 0.00 | 96 | 1008.1 |
| 20260506124555 | 75 | 103 | 2.0 | 6.0 | 0.00 | 0.00 | 0.00 | 96 | 1008.1 |
| 20260506124057 | 75 | 104 | 3.0 | 6.0 | 0.00 | 0.00 | 0.00 | 96 | 1008.1 |
| 20260506123555 | 75 | 101 | 3.0 | 6.0 | 0.00 | 0.00 | 0.00 | 96 | 1008.1 |
| 20260506123058 | 75 | 107 | 3.0 | 6.0 | 0.00 | 0.00 | 0.00 | 96 | 1008.1 |
| 20260506122555 | 75 | 90 | 1.0 | 4.0 | 0.00 | 0.00 | 0.00 | 96 | 1008.2 |
| 20260506122057 | 75 | 90 | 1.0 | 7.0 | 0.00 | 0.00 | 0.00 | 96 | 1008.3 |
| 20260506121559 | 75 | 90 | 3.0 | 7.0 | 0.00 | 0.00 | 0.00 | 96 | 1008.2 |
| 20260506121053 | 75 | 112 | 3.0 | 6.0 | 0.00 | 0.00 | 0.00 | 96 | 1008.0 |
| 20260506120552 | 75 | 113 | 2.0 | 5.0 | 0.00 | 0.00 | 0.00 | 96 | 1008.1 |
| 20260506120106 | 75 | 78 | 2.0 | 5.0 | 0.00 | 0.00 | 0.00 | 96 | 1008.1 |
| 20260506115600 | 75 | 91 | 2.0 | 4.0 | 0.00 | 0.00 | 0.00 | 96 | 1008.0 |
| 20260506115054 | 75 | 98 | 2.0 | 4.0 | 0.00 | 0.00 | 0.00 | 96 | 1007.9 |
| 20260506114555 | 75 | 104 | 1.0 | 6.0 | 0.00 | 0.00 | 0.00 | 96 | 1007.9 |
| 20260506114054 | 75 | 123 | 1.0 | 6.0 | 0.00 | 0.00 | 0.00 | 96 | 1007.8 |
| 20260506113557 | 75 | 119 | 1.0 | 4.0 | 0.00 | 0.00 | 0.00 | 96 | 1007.7 |
| 20260506113100 | 75 | 123 | 1.0 | 4.0 | 0.00 | 0.00 | 0.00 | 96 | 1007.7 |
| 20260506112555 | 75 | 0 | 2.0 | 4.0 | 0.00 | 0.00 | 0.00 | 96 | 1007.7 |
| 20260506112054 | 75 | 124 | 2.0 | 7.0 | 0.00 | 0.00 | 0.00 | 96 | 1007.6 |
| 20260506111601 | 75 | 117 | 2.0 | 7.0 | 0.00 | 0.00 | 0.00 | 96 | 1007.5 |
| 20260506111058 | 75 | 109 | 3.0 | 7.0 | 0.00 | 0.00 | 0.00 | 96 | 1007.5 |
| 20260506110555 | 75 | 117 | 2.0 | 6.0 | 0.00 | 0.00 | 0.00 | 96 | 1007.6 |
| 20260506105555 | 75 | 0 | 1.0 | 5.0 | 0.00 | 0.00 | 0.00 | 96 | 1007.5 |
| 20260506105058 | 75 | 128 | 2.0 | 6.0 | 0.00 | 0.00 | 0.00 | 96 | 1007.5 |
| 20260506104601 | 75 | 108 | 2.0 | 6.0 | 0.00 | 0.00 | 0.00 | 96 | 1007.5 |
| 20260506104054 | 75 | 126 | 2.0 | 6.0 | 0.00 | 0.00 | 0.00 | 96 | 1007.5 |
| 20260506103555 | 75 | 129 | 2.0 | 6.0 | 0.00 | 0.00 | 0.00 | 95 | 1007.6 |
| 20260506103055 | 75 | 134 | 2.0 | 7.0 | 0.00 | 0.00 | 0.00 | 95 | 1007.5 |
| 20260506102555 | 75 | 115 | 2.0 | 7.0 | 0.00 | 0.00 | 0.00 | 96 | 1007.6 |
| 20260506102055 | 75 | 126 | 2.0 | 5.0 | 0.00 | 0.00 | 0.00 | 95 | 1007.6 |
| 20260506101556 | 75 | 134 | 2.0 | 5.0 | 0.00 | 0.00 | 0.00 | 96 | 1007.6 |
| 20260506101056 | 75 | 135 | 1.0 | 6.0 | 0.00 | 0.00 | 0.00 | 95 | 1007.5 |
| 20260506100554 | 75 | 128 | 3.0 | 7.0 | 0.00 | 0.00 | 0.00 | 95 | 1007.5 |
| 20260506095556 | 75 | 128 | 2.0 | 6.0 | 0.00 | 0.00 | 0.00 | 95 | 1007.4 |
| 20260506095055 | 75 | 132 | 2.0 | 4.0 | 0.00 | 0.00 | 0.00 | 95 | 1007.5 |
| 20260506094611 | 75 | 116 | 2.0 | 7.0 | 0.00 | 0.00 | 0.00 | 95 | 1007.5 |
| 20260506094100 | 75 | 119 | 2.0 | 7.0 | 0.00 | 0.00 | 0.00 | 95 | 1007.4 |
| 20260506093557 | 75 | 119 | 2.0 | 5.0 | 0.00 | 0.00 | 0.00 | 95 | 1007.4 |
| 20260506093055 | 75 | 126 | 2.0 | 5.0 | 0.00 | 0.00 | 0.00 | 95 | 1007.5 |
| 20260506092555 | 75 | 115 | 2.0 | 5.0 | 0.00 | 0.00 | 0.00 | 95 | 1007.4 |
| 20260506092055 | 75 | 114 | 2.0 | 7.0 | 0.00 | 0.00 | 0.00 | 95 | 1007.4 |
| 20260506091555 | 75 | 129 | 2.0 | 7.0 | 0.00 | 0.00 | 0.00 | 95 | 1007.4 |
| 20260506091056 | 75 | 121 | 2.0 | 7.0 | 0.00 | 0.00 | 0.00 | 95 | 1007.5 |
| 20260506090554 | 75 | 142 | 2.0 | 7.0 | 0.00 | 0.00 | 0.00 | 94 | 1007.5 |
| 20260506090055 | 75 | 135 | 2.0 | 6.0 | 0.00 | 0.00 | 0.00 | 94 | 1007.4 |
| 20260506085555 | 75 | 147 | 3.0 | 6.0 | 0.00 | 0.00 | 0.00 | 94 | 1007.3 |
| 20260506085057 | 75 | 128 | 1.0 | 5.0 | 0.00 | 0.00 | 0.00 | 94 | 1007.3 |
| 20260506084557 | 75 | 128 | 2.0 | 7.0 | 0.00 | 0.00 | 0.00 | 94 | 1007.4 |
| 20260506084055 | 75 | 134 | 1.0 | 7.0 | 0.00 | 0.00 | 0.00 | 94 | 1007.4 |
| 20260506083556 | 75 | 127 | 2.0 | 7.0 | 0.00 | 0.00 | 0.00 | 94 | 1007.4 |
| 20260506083102 | 75 | 132 | 3.0 | 8.0 | 0.00 | 0.00 | 0.00 | 94 | 1007.4 |
| 20260506082555 | 75 | 150 | 3.0 | 8.0 | 0.00 | 0.00 | 0.00 | 94 | 1007.4 |
| 20260506082055 | 76 | 128 | 4.0 | 8.0 | 0.00 | 0.00 | 0.00 | 94 | 1007.4 |
| 20260506081556 | 76 | 152 | 3.0 | 9.0 | 0.00 | 0.00 | 0.00 | 93 | 1007.4 |
| 20260506081057 | 76 | 134 | 3.0 | 9.0 | 0.00 | 0.00 | 0.00 | 93 | 1007.4 |
| 20260506080555 | 76 | 128 | 4.0 | 9.0 | 0.00 | 0.00 | 0.00 | 93 | 1007.5 |
| 20260506080107 | 76 | 121 | 3.0 | 9.0 | 0.00 | 0.00 | 0.00 | 93 | 1007.5 |
| 20260506073118 | 76 | 153 | 4.0 | 9.0 | 0.00 | 0.00 | 0.00 | 92 | 1007.7 |
| 20260506072556 | 76 | 170 | 4.0 | 9.0 | 0.00 | 0.00 | 0.00 | 92 | 1007.8 |
| 20260506072055 | 76 | 142 | 5.0 | 9.0 | 0.00 | 0.00 | 0.00 | 92 | 1007.8 |
| 20260506071602 | 76 | 137 | 4.0 | 11.0 | 0.00 | 0.00 | 0.00 | 92 | 1007.9 |
| 20260506071058 | 76 | 136 | 5.0 | 12.0 | 0.00 | 0.00 | 0.00 | 92 | 1008.0 |
| 20260506070554 | 76 | 159 | 5.0 | 14.0 | 0.00 | 0.00 | 0.00 | 92 | 1008.1 |
| 20260506062055 | 76 | 142 | 3.0 | 8.0 | 0.00 | 0.00 | 0.00 | 92 | 1008.7 |
| 20260506061601 | 76 | 148 | 3.0 | 8.0 | 0.00 | 0.00 | 0.00 | 92 | 1008.7 |
| 20260506061055 | 76 | 148 | 3.0 | 8.0 | 0.00 | 0.00 | 0.00 | 92 | 1008.7 |
| 20260506060556 | 76 | 123 | 3.0 | 10.0 | 0.00 | 0.00 | 0.00 | 92 | 1008.8 |
| 20260506051052 | 77 | 168 | 7.0 | 15.0 | 0.00 | 0.00 | 0.00 | 91 | 1008.4 |
| 20260506050552 | 77 | 162 | 7.0 | 14.0 | 0.00 | 0.00 | 0.00 | 91 | 1008.3 |
| 20260506045054 | 77 | 140 | 7.0 | 16.0 | 0.00 | 0.00 | 0.00 | 91 | 1008.2 |
| 20260506044601 | 77 | 192 | 7.0 | 14.0 | 0.00 | 0.00 | 0.00 | 91 | 1008.1 |
| 20260506044051 | 77 | 154 | 7.0 | 12.0 | 0.00 | 0.00 | 0.00 | 91 | 1008.1 |
| 20260506043553 | 77 | 121 | 5.0 | 17.0 | 0.00 | 0.00 | 0.00 | 91 | 1008.1 |
| 20260506043101 | 77 | 157 | 7.0 | 17.0 | 0.00 | 0.00 | 0.00 | 91 | 1008.0 |
| 20260506042553 | 77 | 144 | 9.0 | 17.0 | 0.00 | 0.00 | 0.00 | 91 | 1007.9 |
| 20260506042053 | 77 | 126 | 6.0 | 17.0 | 0.00 | 0.00 | 0.00 | 91 | 1007.8 |
| 20260506041557 | 77 | 163 | 7.0 | 17.0 | 0.00 | 0.00 | 0.00 | 91 | 1007.9 |
| 20260506041052 | 76 | 115 | 7.0 | 14.0 | 0.00 | 0.00 | 0.00 | 91 | 1007.8 |
| 20260506040552 | 76 | 144 | 5.0 | 14.0 | 0.00 | 0.00 | 0.00 | 91 | 1007.9 |
| 20260506040058 | 76 | 161 | 5.0 | 14.0 | 0.00 | 0.00 | 0.00 | 91 | 1007.8 |
| 20260506035552 | 76 | 167 | 7.0 | 14.0 | 0.00 | 0.00 | 0.00 | 91 | 1007.8 |
| 20260506035052 | 77 | 153 | 6.0 | 14.0 | 0.00 | 0.00 | 0.00 | 91 | 1007.8 |
| 20260506034604 | 77 | 140 | 6.0 | 14.0 | 0.00 | 0.00 | 0.00 | 90 | 1007.7 |
| 20260506034051 | 77 | 133 | 7.0 | 17.0 | 0.00 | 0.00 | 0.00 | 90 | 1007.7 |
| 20260506033554 | 77 | 136 | 8.0 | 17.0 | 0.00 | 0.00 | 0.00 | 90 | 1007.7 |
| 20260506033109 | 77 | 130 | 6.0 | 16.0 | 0.00 | 0.00 | 0.00 | 90 | 1007.7 |
| 20260506032556 | 77 | 170 | 8.0 | 16.0 | 0.00 | 0.00 | 0.00 | 90 | 1007.6 |
| 20260506032056 | 77 | 140 | 7.0 | 16.0 | 0.00 | 0.00 | 0.00 | 90 | 1007.7 |
| 20260506031555 | 77 | 144 | 6.0 | 16.0 | 0.00 | 0.00 | 0.00 | 90 | 1007.6 |
| 20260506031052 | 77 | 144 | 6.0 | 15.0 | 0.00 | 0.00 | 0.00 | 90 | 1007.7 |
| 20260506030555 | 77 | 153 | 6.0 | 16.0 | 0.00 | 0.00 | 0.00 | 90 | 1007.7 |
| 20260506025553 | 76 | 135 | 8.0 | 15.0 | 0.00 | 0.00 | 0.00 | 90 | 1007.5 |
| 20260506025055 | 76 | 122 | 5.0 | 16.0 | 0.00 | 0.00 | 0.00 | 90 | 1007.4 |
| 20260506024614 | 77 | 167 | 8.0 | 16.0 | 0.00 | 0.00 | 0.00 | 90 | 1007.4 |
| 20260506024052 | 77 | 150 | 6.0 | 14.0 | 0.00 | 0.00 | 0.00 | 90 | 1007.2 |
| 20260506023552 | 77 | 128 | 8.0 | 17.0 | 0.00 | 0.00 | 0.00 | 90 | 1007.1 |
| 20260506023104 | 77 | 156 | 7.0 | 17.0 | 0.00 | 0.00 | 0.00 | 90 | 1006.9 |
| 20260506022552 | 77 | 105 | 8.0 | 17.0 | 0.00 | 0.00 | 0.00 | 90 | 1006.9 |
| 20260506022053 | 77 | 161 | 9.0 | 16.0 | 0.00 | 0.00 | 0.00 | 90 | 1006.9 |
| 20260506021559 | 77 | 142 | 6.0 | 15.0 | 0.00 | 0.00 | 0.00 | 90 | 1006.9 |
| 20260506021055 | 77 | 135 | 6.0 | 15.0 | 0.00 | 0.00 | 0.00 | 89 | 1006.9 |
| 20260506020551 | 77 | 170 | 6.0 | 14.0 | 0.00 | 0.00 | 0.00 | 89 | 1006.8 |
| 20260506020100 | 77 | 139 | 8.0 | 15.0 | 0.00 | 0.00 | 0.00 | 89 | 1006.8 |
| 20260506015554 | 77 | 115 | 6.0 | 15.0 | 0.00 | 0.00 | 0.00 | 89 | 1006.7 |
| 20260506015052 | 77 | 123 | 6.0 | 17.0 | 0.00 | 0.00 | 0.00 | 89 | 1006.7 |
| 20260506014559 | 77 | 137 | 7.0 | 17.0 | 0.00 | 0.00 | 0.00 | 89 | 1006.5 |
| 20260506014100 | 77 | 138 | 9.0 | 16.0 | 0.00 | 0.00 | 0.00 | 88 | 1006.5 |
| 20260506013554 | 77 | 211 | 7.0 | 18.0 | 0.00 | 0.00 | 0.00 | 88 | 1006.4 |
| 20260506013106 | 77 | 152 | 9.0 | 18.0 | 0.00 | 0.00 | 0.00 | 88 | 1006.3 |
| 20260506012552 | 77 | 158 | 7.0 | 19.0 | 0.00 | 0.00 | 0.00 | 88 | 1006.4 |
| 20260506012054 | 77 | 159 | 10.0 | 19.0 | 0.00 | 0.00 | 0.00 | 88 | 1006.3 |
| 20260506011623 | 77 | 165 | 9.0 | 17.0 | 0.00 | 0.00 | 0.00 | 88 | 1006.2 |
| 20260506011053 | 77 | 143 | 6.0 | 17.0 | 0.00 | 0.00 | 0.00 | 88 | 1006.0 |
| 20260506010553 | 77 | 148 | 9.0 | 16.0 | 0.00 | 0.00 | 0.00 | 87 | 1006.0 |
| 20260506010115 | 78 | 136 | 8.0 | 16.0 | 0.00 | 0.00 | 0.00 | 87 | 1006.0 |
| 20260506005551 | 78 | 147 | 8.0 | 20.0 | 0.00 | 0.00 | 0.00 | 87 | 1005.9 |
| 20260506005057 | 78 | 161 | 10.0 | 21.0 | 0.00 | 0.00 | 0.00 | 87 | 1006.0 |
| 20260506004556 | 78 | 164 | 9.0 | 21.0 | 0.00 | 0.00 | 0.00 | 87 | 1006.0 |
| 20260506004052 | 78 | 134 | 6.0 | 16.0 | 0.00 | 0.00 | 0.00 | 87 | 1005.8 |
| 20260506003552 | 78 | 128 | 8.0 | 16.0 | 0.00 | 0.00 | 0.00 | 86 | 1005.7 |
| 20260506003058 | 78 | 163 | 9.0 | 15.0 | 0.00 | 0.00 | 0.00 | 86 | 1005.8 |
| 20260506002554 | 79 | 164 | 7.0 | 17.0 | 0.00 | 0.00 | 0.00 | 85 | 1005.7 |
| 20260506002051 | 79 | 165 | 7.0 | 18.0 | 0.00 | 0.00 | 0.00 | 85 | 1005.7 |
| 20260506001601 | 79 | 160 | 7.0 | 21.0 | 0.00 | 0.00 | 0.00 | 85 | 1005.6 |
| 20260506001052 | 79 | 111 | 10.0 | 21.0 | 0.00 | 0.00 | 0.00 | 85 | 1005.6 |
| 20260506000558 | 79 | 157 | 9.0 | 22.0 | 0.00 | 0.00 | 0.00 | 85 | 1005.6 |
| 20260506000100 | 79 | 137 | 8.0 | 24.0 | 0.00 | 0.00 | 0.00 | 85 | 1005.5 |
| 20260505235556 | 79 | 182 | 11.0 | 24.0 | 0.00 | 0.00 | 0.00 | 85 | 1005.4 |
| 20260505235055 | 79 | 182 | 10.0 | 21.0 | 0.00 | 0.00 | 0.00 | 85 | 1005.5 |
| 20260505234556 | 79 | 143 | 12.0 | 22.0 | 0.00 | 0.00 | 0.00 | 85 | 1005.5 |
| 20260505234055 | 79 | 130 | 11.0 | 22.0 | 0.00 | 0.00 | 0.00 | 84 | 1005.5 |
| 20260505233553 | 79 | 150 | 11.0 | 20.0 | 0.00 | 0.00 | 0.00 | 84 | 1005.6 |
| 20260505233056 | 80 | 135 | 8.0 | 19.0 | 0.00 | 0.00 | 0.00 | 84 | 1005.5 |
| 20260505232556 | 80 | 118 | 7.0 | 20.0 | 0.00 | 0.00 | 0.00 | 84 | 1005.6 |
| 20260505232052 | 80 | 128 | 9.0 | 20.0 | 0.00 | 0.00 | 0.00 | 84 | 1005.7 |
| 20260505231557 | 80 | 151 | 11.0 | 18.0 | 0.00 | 0.00 | 0.00 | 84 | 1005.6 |
| 20260505231052 | 80 | 181 | 9.0 | 18.0 | 0.00 | 0.00 | 0.00 | 84 | 1005.7 |
| 20260505230552 | 79 | 143 | 9.0 | 20.0 | 0.00 | 0.00 | 0.00 | 84 | 1005.7 |
| 20260505230101 | 80 | 144 | 9.0 | 20.0 | 0.00 | 0.00 | 0.00 | 84 | 1005.7 |
| 20260505225552 | 80 | 132 | 11.0 | 23.0 | 0.00 | 0.00 | 0.00 | 84 | 1005.6 |
| 20260505225053 | 79 | 112 | 7.0 | 25.0 | 0.00 | 0.00 | 0.00 | 84 | 1005.7 |
| 20260505224554 | 80 | 115 | 11.0 | 25.0 | 0.00 | 0.00 | 0.00 | 83 | 1005.9 |
| 20260505224054 | 80 | 138 | 11.0 | 18.0 | 0.00 | 0.00 | 0.00 | 83 | 1005.9 |
| 20260505223551 | 80 | 153 | 7.0 | 16.0 | 0.00 | 0.00 | 0.00 | 84 | 1006.1 |
| 20260505223100 | 80 | 153 | 6.0 | 18.0 | 0.00 | 0.00 | 0.00 | 83 | 1006.0 |
| 20260505222551 | 80 | 134 | 7.0 | 18.0 | 0.00 | 0.00 | 0.00 | 83 | 1006.0 |
| 20260505222054 | 80 | 134 | 9.0 | 19.0 | 0.00 | 0.00 | 0.00 | 82 | 1006.1 |
| 20260505221603 | 81 | 138 | 9.0 | 19.0 | 0.00 | 0.00 | 0.00 | 82 | 1006.1 |
| 20260505221052 | 81 | 173 | 9.0 | 20.0 | 0.00 | 0.00 | 0.00 | 82 | 1006.1 |
| 20260505220552 | 81 | 169 | 12.0 | 20.0 | 0.00 | 0.00 | 0.00 | 82 | 1006.1 |
| 20260505220107 | 81 | 123 | 8.0 | 17.0 | 0.00 | 0.00 | 0.00 | 82 | 1006.1 |
| 20260505215552 | 81 | 140 | 8.0 | 17.0 | 0.00 | 0.00 | 0.00 | 82 | 1006.1 |
| 20260505215052 | 81 | 141 | 9.0 | 18.0 | 0.00 | 0.00 | 0.00 | 81 | 1006.1 |
| 20260505214600 | 81 | 150 | 8.0 | 19.0 | 0.00 | 0.00 | 0.00 | 81 | 1006.1 |
| 20260505214052 | 82 | 136 | 10.0 | 19.0 | 0.00 | 0.00 | 0.00 | 80 | 1006.2 |
| 20260505213551 | 82 | 129 | 7.0 | 18.0 | 0.00 | 0.00 | 0.00 | 81 | 1006.1 |
| 20260505213054 | 82 | 126 | 10.0 | 18.0 | 0.00 | 0.00 | 0.00 | 80 | 1006.2 |
| 20260505212554 | 82 | 148 | 10.0 | 18.0 | 0.00 | 0.00 | 0.00 | 79 | 1006.5 |
| 20260505212052 | 82 | 123 | 8.0 | 18.0 | 0.00 | 0.00 | 0.00 | 80 | 1006.6 |
| 20260505211554 | 82 | 134 | 9.0 | 18.0 | 0.00 | 0.00 | 0.00 | 80 | 1006.7 |
| 20260505211123 | 82 | 129 | 11.0 | 18.0 | 0.00 | 0.00 | 0.00 | 79 | 1006.6 |
| 20260505210551 | 82 | 157 | 10.0 | 17.0 | 0.00 | 0.00 | 0.00 | 80 | 1006.6 |
| 20260505210055 | 82 | 107 | 9.0 | 17.0 | 0.00 | 0.00 | 0.00 | 81 | 1006.7 |
| 20260505205555 | 82 | 120 | 8.0 | 24.0 | 0.00 | 0.00 | 0.00 | 80 | 1006.7 |
| 20260505205055 | 82 | 149 | 12.0 | 24.0 | 0.00 | 0.00 | 0.00 | 78 | 1006.7 |
| 20260505204600 | 83 | 138 | 8.0 | 20.0 | 0.00 | 0.00 | 0.00 | 79 | 1006.7 |
| 20260505204052 | 83 | 153 | 10.0 | 20.0 | 0.00 | 0.00 | 0.00 | 78 | 1006.8 |
| 20260505203556 | 83 | 175 | 8.0 | 17.0 | 0.00 | 0.00 | 0.00 | 79 | 1006.9 |
| 20260505203052 | 83 | 141 | 10.0 | 17.0 | 0.00 | 0.00 | 0.00 | 78 | 1007.1 |
| 20260505202552 | 83 | 144 | 9.0 | 16.0 | 0.00 | 0.00 | 0.00 | 78 | 1007.2 |
| 20260505202052 | 83 | 155 | 8.0 | 18.0 | 0.00 | 0.00 | 0.00 | 79 | 1007.1 |
| 20260505201553 | 83 | 148 | 7.0 | 19.0 | 0.00 | 0.00 | 0.00 | 79 | 1007.2 |